Reflectivity
-20 -20 -20 -20 -20 -20 -20 10 -8 -1 -20 -20 -20 -20 -20 -20 -20 -20 -20 -20 -20 -20 -20 -20 -20 -20 -20 -9 -20 -20 -20 -20 -20 12 -17 -20 -20 12 -16 -20 -20 -20 -20 -20
-20 -20 -20 -20 -20 -19 15 10 9 -15 -20 -20 -20 -20 -20 -20 -20 -20 -20 -20 -20 -20 -20 -20 -20 -20 -20 -20 -20 -20 -20 -20 -20 -20 -20 -20 -20 -20 -20 -20 -20 -20 -20 -20
-20 -20 -20 -20 -20 -20 -10 8 -14 -20 -20 -20 -20 -20 -20 -20 -20 -20 -20 -20 -20 -20 -20 -20 -20 -20 -20 -20 -20 -20 -20 -20 -20 -20 -20 -20 -20 -20 -20 -20 -20 -20 -20 -20
-20 -20 -20 -20 -20 -20 -20 -20 -20 -20 -5 -15 -20 -20 -20 -20 -20 -20 -20 -20 -20 -20 -20 -20 -20 -20 -20 -20 -20 -20 -20 -20 -20 -20 -20 -20 -20 -20 -20 -20 -20 -20 -20 -20
-20 -20 -20 -20 -20 -20 -20 -20 -17 8 5 -11 -10 -20 -20 -20 -20 -20 -20 -20 -20 -20 -20 -20 -20 -20 -20 -20 -20 -20 -20 -20 -20 -20 -20 -20 -20 -20 -20 -20 -20 -20 -20 -20
-20 -20 -20 -20 -20 -20 -17 2 8 26 29 12 2 -10 -20 -20 -20 -20 -20 -20 -20 -20 -20 -20 -20 -20 -20 -20 -20 -20 -20 -20 -20 -20 -20 -20 -20 -20 -20 -20 -20 -20 -20 -20
-20 -20 -20 -20 -20 -20 2 -1 13 11 16 -8 -12 -11 -20 -20 -20 -20 -7 -11 -20 -20 -20 -20 -20 -20 -20 -20 -20 -20 -20 -20 -20 -20 -20 -20 -20 -20 -20 -20 -20 -20 -20 -20
-20 -20 -20 -20 -20 -20 -13 -6 -3 -17 -20 -20 -20 -20 -20 -20 -20 -6 -3 -20 -20 -20 -20 -20 -20 -20 -20 -20 -20 -20 -20 -20 -20 -20 -20 -20 -20 -20 -20 -20 -20 -20 -20 -20
-20 -20 -20 -20 -20 7 4 -11 -20 0 -10 8 -20 -20 -20 -20 -20 -20 -20 -14 4 -10 -20 -20 -20 -20 -20 -20 -20 -20 -20 -20 -20 -20 -20 -20 -20 -20 -20 -20 -20 -20 -20 -20
-20 -20 -20 -16 7 -13 4 -6 -15 9 -12 -3 -20 -20 -20 -20 -20 -20 -6 7 9 -3 -20 -20 -20 -20 -20 -20 -20 -20 -20 -20 -20 -20 -20 -20 -20 -20 -20 -20 -20 -20 -20 -20
-20 -20 -20 -3 -9 -12 -4 -18 -20 -2 -19 -20 -20 -20 -20 -20 -20 -4 3 4 -6 -20 -20 -20 -20 -20 -20 -20 -20 -20 -20 -20 -20 -20 -20 -20 -20 -20 -20 -20 -20 -20 -20 -20
-20 -20 -20 -13 -18 -15 -20 -20 -20 -20 -20 -20 -20 -20 -20 -20 -20 2 -6 -5 -20 -20 -20 -20 -20 -20 -20 -20 -20 -20 -20 -20 -20 -20 -20 -20 -20 -20 -20 -20 -20 -20 -20 -20
-20 -19 -15 -20 -17 -20 -20 -20 -20 -20 -20 -20 -20 -20 -20 -15 -5 -2 -7 -20 -20 -20 -20 -20 -20 -20 -20 -20 -20 -20 -20 -20 -20 -20 -20 -20 -20 -20 -20 -20 -20 -20 -20 -20
-20 -20 -20 -20 -20 -20 -20 -20 -20 -20 -20 -20 -20 -20 -20 -1 -7 0 -2 -20 -20 -20 -20 -20 -20 -20 -20 -20 -20 -20 -20 -20 -20 -20 -20 -20 -20 -20 -20 -20 -20 -20 -20 -20
-20 -20 -20 -20 -20 -20 -20 -20 -13 -12 -20 -20 -20 -20 -20 -20 -3 5 -11 -20 -20 -20 -20 -20 -20 -20 -20 -20 -20 -20 -20 -20 -20 -20 -20 -20 -20 -20 -20 -20 -20 -20 -20 -20
-20 -20 -20 -20 -17 -20 -20 -20 -20 -20 -20 -20 -20 -20 -20 -10 2 0 -16 -20 -20 -20 -20 -20 -20 -20 -20 -20 -20 -20 -20 -20 -20 -20 -20 -20 -20 -20 -20 -20 -20 -20 -20 -20
-20 -20 -20 -20 -20 -12 -15 -20 -20 -20 -20 -20 -20 -20 -20 -20 -20 -20 -20 -20 -20 -20 -20 -20 -20 -20 -20 -20 -20 -20 -20 -20 -20 -20 -20 -20 -20 -20 -20 -20 -20 -20 -20 -20
-20 -20 -20 -20 -20 -20 -17 -4 -18 -20 -20 -20 -20 -20 -20 -20 -20 -20 -20 -20 -20 -20 -20 -20 -20 -20 -20 -20 -20 -20 -20 -20 -20 -20 -20 -20 -20 -20 -20 -20 -20 -20 -20 -20
-20 -20 -20 -20 -20 -20 -20 -20 -20 -20 -20 -20 -20 -20 -20 -20 -20 -20 -20 -20 -20 -20 -20 -20 -20 -20 -20 -20 -20 -20 -20 -20 -20 -20 -20 -20 -20 -20 -20 -20 -20 -20 -20 -20
-20 -20 -17 -20 -20 -20 -20 -20 -20 -20 -20 -20 -20 -20 -20 -20 -20 -20 -20 -20 -20 -20 -20 -20 -20 -20 -20 -20 -20 -20 -20 -20 -20 -20 -20 -20 -20 -20 -20 -20 -20 -20 -20 -20
-20 -11 -16 -20 -20 -20 -20 -20 -19 -20 -20 -14 -20 -20 -20 -20 -20 -20 -20 -20 -20 -20 -20 -20 -20 -20 -20 -20 -20 -20 -20 -20 -20 -20 -20 -20 -20 -20 -20 -20 -20 -20 -20 -20
-0 -20 -8 -20 -20 -20 -20 -20 -20 -20 -20 -20 -20 -20 -20 -20 -20 -20 -20 -20 -20 -20 -20 -20 -20 -20 -20 -20 -20 -20 -20 -20 -20 -20 -20 -20 -20 -20 -20 -20 -20 -20 -20 -20
6 13 11 -20 -20 -20 -20 -20 -20 -20 -20 -20 -20 -20 -20 -20 -20 -20 -20 -20 -20 -20 -20 -20 -20 -20 -20 -20 -20 -20 -20 -20 -20 -20 -20 -20 -20 -20 -20 -20 -20 -20 -20 -20
-14 7 17 6 -12 -20 -20 -20 -20 -20 -20 -20 -20 -20 -20 -20 -20 -20 -20 -20 -20 -20 -20 -20 -20 -20 -20 -20 -20 -20 -20 -20 -20 -20 -20 -20 -20 -20 -20 -20 -20 -20 -20 -20
-17 -4 12 -0 -20 -20 -20 -20 -20 -20 -20 -20 -20 -20 -20 -20 -20 -20 -20 -20 -20 -20 -20 -20 -20 -20 -20 -20 -20 -20 -20 -20 -20 -20 -20 -20 -20 -20 -20 -20 -20 -20 -20 -20
-20 -20 -12 -11 -20 -20 -20 -20 -20 -20 -20 -20 -20 -20 -20 -20 -20 -20 -20 -20 -20 -20 -20 -20 -20 -20 -20 -20 -20 -20 -20 -20 -20 -20 -20 -20 -20 -20 -20 -20 -20 -20 -20 -20
Wind_Speed
2 4 9 8 4 1 5 12 6 2 3 8 5 14 9 7 7 8 8 7 7 8 4 5 7 7 10 11 12 13 12 10 6 4 5 8 8 7 8 8 11 11 10 11
3 8 5 4 5 4 6 10 3 7 4 9 9 7 3 6 5 10 13 11 11 7 5 6 6 8 9 8 9 11 11 11 8 4 3 5 5 6 4 6 8 11 12 12
7 5 6 9 5 7 7 17 9 11 9 10 15 4 3 4 3 6 5 7 8 11 10 6 7 7 7 9 7 9 10 10 9 8 7 4 3 4 5 7 7 9 10 11
7 7 4 4 11 8 12 7 12 20 9 8 5 6 9 11 7 6 6 8 9 9 7 7 6 7 7 7 6 9 8 10 8 7 8 10 8 8 3 3 3 4 6 7
8 6 8 9 11 9 6 8 12 6 7 9 6 4 6 13 9 15 12 10 10 9 11 10 9 8 6 6 6 6 8 9 7 7 6 7 9 3 2 3 5 6 5 6
7 3 6 9 6 6 8 13 14 9 5 3 17 8 7 17 26 18 15 14 13 10 9 8 7 8 7 6 6 6 8 6 6 7 7 8 8 6 6 5 5 4 3 4
3 5 3 4 6 4 14 14 4 4 5 10 10 6 11 23 18 27 23 17 13 11 10 10 9 8 7 8 7 6 7 7 6 7 7 8 8 7 7 5 4 5 5 4
7 5 8 5 7 10 16 13 9 15 9 2 7 10 7 18 18 18 18 17 15 13 11 11 10 8 8 8 7 7 7 7 7 7 7 6 7 4 4 5 4 4 4 4
5 7 2 4 5 10 6 13 11 7 1 4 6 4 4 6 16 21 21 18 18 16 13 12 9 9 8 7 7 8 8 7 7 7 6 7 6 7 6 7 5 4 5 6
5 3 3 3 4 1 12 13 7 2 11 8 6 7 8 16 22 23 23 22 20 17 14 12 11 10 7 7 7 7 7 8 7 8 6 5 6 7 6 6 6 5 4 6
7 3 3 4 6 9 3 7 2 5 5 13 6 10 14 22 25 27 26 24 23 19 17 15 11 9 8 7 7 7 7 8 7 7 6 7 6 6 5 5 5 6 6 6
7 5 5 8 1 2 4 7 6 10 12 1 2 7 4 24 29 29 27 25 21 19 17 15 14 12 10 8 7 7 7 8 7 7 7 7 6 6 5 6 6 5 5 5
8 4 3 4 4 2 4 5 4 3 4 8 6 4 2 11 14 16 21 22 20 18 16 13 12 12 11 8 7 7 7 7 7 7 7 6 6 6 6 6 6 5 5 5
4 6 9 13 6 6 5 4 5 5 3 4 8 5 5 11 16 18 20 21 20 18 18 16 13 12 11 10 9 8 7 8 7 7 6 6 6 6 6 5 5 5 5 5
1 8 6 5 9 6 7 9 10 9 8 9 6 9 14 18 22 25 20 21 20 20 18 18 16 13 11 10 8 7 8 8 7 7 7 6 6 6 5 5 5 4 5 5
10 6 7 7 8 9 7 9 12 17 7 9 3 6 8 15 9 15 21 23 24 21 20 18 17 15 14 13 11 9 9 8 7 7 7 6 6 6 6 5 4 4 5 5
8 5 1 9 4 6 2 15 14 5 8 9 14 7 9 11 17 21 22 26 26 24 22 21 20 17 15 14 12 12 11 8 8 8 7 6 5 5 4 4 4 5 5 4
11 5 3 3 4 3 13 11 15 17 15 18 7 10 16 20 24 24 23 24 25 24 22 20 17 14 13 11 10 10 10 9 9 7 7 6 5 5 5 5 5 5 4 5
20 7 5 4 7 6 2 6 9 9 20 9 13 8 13 16 7 3 16 21 25 24 21 20 18 16 12 14 12 13 10 9 9 7 7 6 5 5 5 5 5 4 5 5
16 18 9 2 8 12 10 6 4 7 18 11 15 16 14 14 13 8 21 23 19 20 19 18 17 15 15 12 13 14 11 10 8 8 7 6 5 5 5 4 4 4 3 4
6 7 17 15 6 11 5 10 9 8 12 11 20 18 19 19 13 20 19 17 18 21 21 17 19 19 17 14 15 13 11 10 9 9 7 6 6 5 5 4 3 4 4 4
6 9 7 4 8 19 7 5 18 15 6 4 11 16 21 20 12 19 24 22 24 23 19 20 19 16 14 15 15 13 12 9 10 9 8 7 6 4 4 5 4 4 4 4
10 7 7 13 11 3 6 10 12 4 4 5 7 9 19 12 12 23 23 23 24 25 21 19 19 17 14 14 14 14 10 11 11 10 8 6 6 5 4 5 4 3 4 3
7 16 5 6 7 7 7 7 5 4 5 4 5 8 13 14 17 20 20 21 20 20 21 18 19 18 15 12 11 12 13 11 11 10 8 6 6 6 5 3 3 3 3 3
9 13 10 14 23 7 7 7 5 8 8 6 6 10 16 15 18 20 19 20 20 21 19 20 20 18 16 13 11 13 12 12 10 9 7 6 5 5 4 3 3 3 2 4
15 20 11 12 17 13 20 14 9 9 10 10 10 7 12 21 21 18 20 19 21 21 19 17 17 17 16 14 13 12 12 12 12 9 6 5 5 4 4 4 3 6 7 9
Wind_Direction
222 141 212 212 176 20 213 163 132 68 94 96 112 134 140 131 124 136 132 126 113 100 95 64 57 50 62 52 50 47 49 43 44 42 73 59 67 45 49 40 33 37 30 29
43 233 198 199 211 183 135 150 129 66 57 82 118 79 109 149 169 167 157 149 146 134 108 90 80 65 56 59 54 56 54 49 44 35 45 57 68 60 49 50 40 37 36 34
171 224 186 178 214 175 179 185 177 144 102 53 114 28 170 211 160 145 158 154 148 150 138 117 86 78 77 70 65 65 62 62 58 53 63 66 81 67 51 38 38 27 30 32
225 225 177 212 206 172 202 185 165 139 132 167 217 207 206 192 197 194 177 169 166 155 139 134 129 102 95 94 88 82 74 71 58 54 76 77 79 76 31 29 13 18 22 26
238 189 174 207 214 190 195 144 139 150 91 123 203 112 269 165 196 207 189 185 173 167 158 150 144 133 125 111 103 93 84 77 70 72 77 79 77 85 68 36 32 21 14 18
234 225 181 202 181 198 133 93 52 50 32 311 196 176 209 186 201 190 189 181 173 169 156 138 137 137 127 120 109 104 99 91 81 77 73 81 80 68 58 37 36 14 2 10
258 229 231 161 121 123 128 118 101 165 206 221 175 192 215 201 193 189 184 173 172 167 155 150 157 150 144 137 131 127 114 100 92 82 70 68 68 64 60 44 35 24 14 14
177 260 179 189 175 170 169 154 155 195 197 168 104 239 255 181 192 179 179 169 164 167 165 171 169 159 152 148 135 122 115 111 99 89 81 76 72 70 61 50 36 28 18 2
187 249 238 170 142 157 205 191 192 95 98 143 204 226 300 185 165 166 175 170 176 174 174 178 169 164 154 152 153 139 125 116 110 104 90 74 68 64 56 41 33 20 10 16
227 246 233 149 126 97 186 166 158 204 174 199 243 227 202 155 169 177 175 177 178 177 174 179 173 163 154 157 148 132 126 118 117 101 92 82 68 57 52 48 36 23 14 17
191 187 296 147 189 171 141 176 201 145 176 213 212 241 169 177 175 177 183 179 176 176 176 177 171 161 152 148 147 138 123 120 113 106 100 82 72 64 62 58 37 27 19 14
194 160 200 217 208 172 161 185 169 191 214 234 188 256 209 173 178 180 180 175 174 174 173 171 162 153 154 154 148 143 132 121 123 116 103 94 89 72 59 48 38 28 22 9
181 221 104 348 5 92 198 202 162 107 79 206 170 241 44 168 176 178 172 172 169 169 165 160 151 158 160 157 153 144 136 129 127 112 104 93 81 73 55 45 32 23 14 15
269 161 187 215 199 143 166 184 160 147 160 164 228 170 158 165 173 172 174 174 168 169 166 161 159 163 164 162 158 145 140 135 130 119 111 102 90 77 67 54 35 23 12 21
44 221 193 233 184 173 173 177 180 196 204 208 180 180 196 185 181 185 169 162 165 173 169 168 164 165 162 160 154 143 137 137 137 123 112 106 100 87 76 55 39 24 21 13
340 281 182 213 203 180 181 203 196 215 212 255 171 233 200 191 136 160 173 168 175 174 172 169 167 163 168 165 158 148 147 145 135 123 113 111 92 82 70 58 42 40 25 11
288 311 126 231 185 123 293 211 208 197 205 184 218 205 155 168 178 179 178 179 177 175 171 170 171 169 169 164 155 156 153 141 131 121 118 117 102 94 80 64 49 38 23 14
251 309 297 214 87 179 248 164 198 206 218 216 207 178 180 180 190 190 185 178 174 171 171 170 168 163 157 148 151 142 141 138 130 122 123 123 116 104 78 60 47 31 18 18
212 207 261 164 204 254 215 222 170 174 250 217 206 196 190 190 144 151 178 185 179 172 170 171 165 154 147 153 151 140 138 136 127 134 135 131 127 112 90 64 41 26 30 11
202 205 194 140 185 219 249 193 145 81 268 216 201 197 173 149 185 189 184 183 175 166 162 158 151 146 146 152 148 142 145 140 146 148 142 135 131 116 95 78 55 34 28 4
165 188 203 217 245 274 232 170 130 154 261 196 185 189 171 186 184 192 168 168 164 159 154 146 150 156 155 151 147 146 148 160 152 138 133 131 126 113 111 91 66 47 22 9
222 175 191 186 203 254 192 103 169 226 284 189 183 187 192 196 163 156 160 158 154 155 149 151 148 149 152 153 149 151 160 149 143 138 132 128 123 112 100 87 61 53 30 19
242 230 246 189 213 258 199 185 223 220 232 229 180 190 194 162 156 158 159 159 159 155 154 153 148 146 152 157 155 152 155 147 144 138 138 133 124 110 99 94 73 57 34 27
301 19 314 321 237 216 214 238 251 196 217 221 225 189 179 168 158 160 156 155 153 154 152 148 145 151 154 154 153 152 151 148 145 143 142 137 126 115 103 96 95 84 53 35
256 326 326 298 290 298 278 231 213 219 219 214 210 176 178 159 168 156 157 157 155 153 151 152 153 156 153 149 146 150 150 146 147 143 141 137 128 122 112 107 109 87 69 76
245 256 250 257 303 315 299 292 220 220 212 214 181 168 172 166 161 160 158 157 152 151 149 148 150 146 147 149 149 150 151 151 147 144 147 147 136 130 125 119 95 51 75 66